This demonstration page uses our WeatherBlox Daily Observations layout. Learn more.

Left ArrowRight Arrow

39.29038, -76.61219

Hourly Observations for January 27, 2015

Temp ( °F °C ) Dew Point ( °F °C ) Humidity (%) Winds ( mph kmh ) Pressure ( in mb ) Visibility ( mi km ) Precip ( " mm )
12:54 am 00:54 undefined 26 -3.3 21 -6.1 81 81 undefined N/A 29.73 1007 N/A 0.00 0.00
1:54 am 01:54 undefined 27 -2.8 21 -6.1 78 78 undefined N/A 29.74 1007 N/A 0.00 0.00
2:54 am 02:54 undefined 27 -2.8 21 -6.1 78 78 undefined N/A 29.74 1007 N/A 0.00 0.00
3:54 am 03:54 undefined 28 -2.2 21 -6.1 75 75 undefined N/A 29.73 1007 N/A 0.00 0.00
4:54 am 04:54 undefined 28 -2.2 22 -5.6 78 78 undefined N/A 29.73 1007 N/A 0.00 0.00
5:54 am 05:54 undefined 28 -2.2 22 -5.6 78 78 undefined N/A 29.75 1008 N/A 0.00 0.00
6:54 am 06:54 undefined 28 -2.2 22 -5.6 78 78 undefined N/A 29.76 1008 N/A 0.00 0.00
7:54 am 07:54 undefined 28 -2.2 21 -6.1 75 75 undefined N/A 29.78 1008 N/A 0.00 0.00
8:54 am 08:54 undefined 29 -1.7 21 -6.1 72 72 undefined N/A 29.79 1009 N/A 0.00 0.00
9:54 am 09:54 undefined 30 -1.1 21 -6.1 69 69 undefined N/A 29.81 1009 N/A 0.00 0.00
10:54 am 10:54 undefined 30 -1.1 21 -6.1 69 69 undefined N/A 29.82 1010 N/A 0.00 0.00
11:54 am 11:54 undefined 32 0 21 -6.1 64 64 undefined N/A 29.80 1009 N/A 0.00 0.00
12:54 pm 12:54 undefined 32 0 20 -6.7 61 61 undefined N/A 29.80 1009 N/A 0.00 0.00
1:54 pm 13:54 undefined 33 0.6 19 -7.2 56 56 undefined N/A 29.79 1009 N/A 0.00 0.00
2:54 pm 14:54 undefined 34 1.1 18 -7.8 52 52 undefined N/A 29.76 1008 N/A 0.00 0.00
3:54 pm 15:54 undefined 34 1.1 17 -8.3 50 50 undefined N/A 29.76 1008 N/A 0.00 0.00
4:54 pm 16:54 undefined 34 1.1 19 -7.2 54 54 undefined N/A 29.78 1009 N/A 0.00 0.00
5:54 pm 17:54 undefined 32 0 20 -6.7 61 61 undefined N/A 29.81 1009 N/A 0.00 0.00
6:54 pm 18:54 undefined 31 -0.6 20 -6.7 64 64 undefined N/A 29.83 1010 N/A 0.00 0.00
7:54 pm 19:54 undefined 30 -1.1 17 -8.3 58 58 undefined N/A 29.85 1011 N/A 0.00 0.00
8:54 pm 20:54 undefined 30 -1.1 14 -10 51 51 undefined N/A 29.88 1012 N/A 0.00 0.00
9:54 pm 21:54 undefined 29 -1.7 13 -10.6 51 51 undefined N/A 29.90 1013 N/A 0.00 0.00
10:54 pm 22:54 undefined 28 -2.2 13 -10.6 53 53 undefined N/A 29.92 1013 N/A 0.00 0.00
11:54 pm 23:54 undefined 28 -2.2 9 -12.8 44 44 undefined N/A 29.95 1014 N/A 0.00 0.00

Powered by AerisWeather